When you browse on this site, cookies collect data to enhance your experience and personalize the content and advertising you see.
Visit our Privacy Policy to learn more. By continuing to use the site, you agree to this use of cookies and data.
  • In Hungary
  • List of Countries
  • For 7 days
  • Water Temperature
  • Weather Map
  • News
  • Weather Widgets
  • user-avatar
    Login

    Hourly Weather Tavil'zhanka

    Today, 28 March, Saturday

    Time Temperature Precipitation Wind Pressure Humidity
    00:00 +6°C° 0 mm 4 mps 759 mmHg 73%
    01:00 +6°C° 0 mm 4 mps 758 mmHg 74%
    02:00 +5°C° 0 mm 4 mps 758 mmHg 75%
    03:00 +5°C° 0 mm 3 mps 758 mmHg 74%
    04:00 +4°C° 0 mm 4 mps 757 mmHg 74%
    05:00 +4°C° 0 mm 4 mps 757 mmHg 74%
    06:00 +4°C° 0 mm 4 mps 757 mmHg 74%
    07:00 +5°C° 0 mm 5 mps 757 mmHg 68%
    08:00 +6°C° 0 mm 5 mps 757 mmHg 62%
    09:00 +8°C° 0 mm 6 mps 757 mmHg 56%
    10:00 +9°C° 0 mm 6 mps 756 mmHg 52%
    11:00 +11°C° 0 mm 6 mps 756 mmHg 47%
    12:00 +12°C° 0 mm 7 mps 756 mmHg 43%
    13:00 +14°C° 0 mm 7 mps 755 mmHg 42%
    14:00 +14°C° 0 mm 7 mps 754 mmHg 41%
    15:00 +16°C° 0 mm 6 mps 753 mmHg 37%
    16:00 +15°C° 0 mm 5 mps 753 mmHg 41%
    17:00 +15°C° 0 mm 5 mps 752 mmHg 45%
    18:00 +14°C° 0 mm 5 mps 752 mmHg 49%
    19:00 +13°C° 0 mm 4 mps 752 mmHg 53%
    20:00 +11°C° 0 mm 4 mps 752 mmHg 58%
    21:00 +10°C° 0 mm 4 mps 752 mmHg 62%
    22:00 +10°C° 0 mm 4 mps 752 mmHg 62%
    23:00 +8°C° 0 mm 4 mps 751 mmHg 62%

    Tomorrow, 30 March, Monday

    Time Temperature Precipitation Wind Pressure Humidity
    00:00 +8°C° 0 mm 2 mps 743 mmHg 61%
    01:00 +8°C° 0 mm 2 mps 743 mmHg 64%
    02:00 +8°C° 0 mm 2 mps 743 mmHg 66%
    03:00 +7°C° 0 mm 2 mps 743 mmHg 69%
    04:00 +7°C° 0 mm 2 mps 743 mmHg 72%
    05:00 +7°C° 0 mm 2 mps 742 mmHg 75%
    06:00 +7°C° 0 mm 1 mps 742 mmHg 78%
    07:00 +7°C° 0 mm 2 mps 743 mmHg 73%
    08:00 +9°C° 0 mm 2 mps 743 mmHg 67%
    09:00 +10°C° 0 mm 2 mps 743 mmHg 62%
    10:00 +12°C° 0 mm 2 mps 743 mmHg 57%
    11:00 +14°C° 0 mm 2 mps 743 mmHg 51%
    12:00 +14°C° 0 mm 3 mps 743 mmHg 46%
    13:00 +14°C° 0 mm 3 mps 743 mmHg 45%
    14:00 +14°C° 0 mm 4 mps 743 mmHg 44%
    15:00 +15°C° 0 mm 4 mps 743 mmHg 42%
    16:00 +14°C° 0 mm 3 mps 744 mmHg 45%
    17:00 +14°C° 0 mm 3 mps 744 mmHg 47%
    18:00 +14°C° 0 mm 2 mps 744 mmHg 49%
    19:00 +13°C° 0 mm 2 mps 744 mmHg 52%
    20:00 +12°C° 0 mm 2 mps 745 mmHg 55%
    21:00 +10°C° 0 mm 2 mps 746 mmHg 58%
    22:00 +9°C° 0 mm 2 mps 746 mmHg 63%
    23:00 +9°C° 0 mm 2 mps 746 mmHg 68%

    Day after tomorrow, 31 March, Tuesday

    Time Temperature Precipitation Wind Pressure Humidity
    00:00 +8°C° 0 mm 3 mps 746 mmHg 73%
    01:00 +8°C° 0 mm 3 mps 747 mmHg 77%
    02:00 +6°C° 0 mm 4 mps 747 mmHg 82%
    03:00 +5°C° 0 mm 4 mps 748 mmHg 86%
    04:00 +4°C° 0 mm 4 mps 748 mmHg 85%
    05:00 +4°C° 0 mm 3 mps 748 mmHg 85%
    06:00 +3°C° 0 mm 3 mps 749 mmHg 84%
    07:00 +4°C° 0 mm 3 mps 749 mmHg 79%
    08:00 +5°C° 0 mm 4 mps 750 mmHg 75%
    09:00 +6°C° 0 mm 4 mps 750 mmHg 70%
    10:00 +6°C° 0 mm 4 mps 751 mmHg 68%
    11:00 +6°C° 0 mm 4 mps 751 mmHg 65%
    12:00 +6°C° 0 mm 5 mps 752 mmHg 63%
    13:00 +6°C° 0 mm 5 mps 752 mmHg 61%
    14:00 +6°C° 0 mm 5 mps 752 mmHg 59%
    15:00 +6°C° 0 mm 5 mps 752 mmHg 56%
    16:00 +6°C° 0 mm 5 mps 752 mmHg 56%
    17:00 +5°C° 0 mm 5 mps 752 mmHg 55%
    18:00 +3°C° 0 mm 5 mps 752 mmHg 55%
    19:00 +2°C° 0 mm 5 mps 753 mmHg 57%
    20:00 +1°C° 0 mm 4 mps 754 mmHg 59%
    21:00 +1°C° 0 mm 4 mps 754 mmHg 61%
    22:00 0°C° 0 mm 4 mps 755 mmHg 62%
    23:00 -1°C° 0 mm 4 mps 755 mmHg 63%

    31 March, Tuesday

    Time Temperature Precipitation Wind Pressure Humidity
    00:00 +8°C° 0 mm 3 mps 746 mmHg 73%
    01:00 +8°C° 0 mm 3 mps 747 mmHg 77%
    02:00 +6°C° 0 mm 4 mps 747 mmHg 82%
    03:00 +5°C° 0 mm 4 mps 748 mmHg 86%
    04:00 +4°C° 0 mm 4 mps 748 mmHg 85%
    05:00 +4°C° 0 mm 3 mps 748 mmHg 85%
    06:00 +3°C° 0 mm 3 mps 749 mmHg 84%
    07:00 +4°C° 0 mm 3 mps 749 mmHg 79%
    08:00 +5°C° 0 mm 4 mps 750 mmHg 75%
    09:00 +6°C° 0 mm 4 mps 750 mmHg 70%
    10:00 +6°C° 0 mm 4 mps 751 mmHg 68%
    11:00 +6°C° 0 mm 4 mps 751 mmHg 65%
    12:00 +6°C° 0 mm 5 mps 752 mmHg 63%
    13:00 +6°C° 0 mm 5 mps 752 mmHg 61%
    14:00 +6°C° 0 mm 5 mps 752 mmHg 59%
    15:00 +6°C° 0 mm 5 mps 752 mmHg 56%
    16:00 +6°C° 0 mm 5 mps 752 mmHg 56%
    17:00 +5°C° 0 mm 5 mps 752 mmHg 55%
    18:00 +3°C° 0 mm 5 mps 752 mmHg 55%
    19:00 +2°C° 0 mm 5 mps 753 mmHg 57%
    20:00 +1°C° 0 mm 4 mps 754 mmHg 59%
    21:00 +1°C° 0 mm 4 mps 754 mmHg 61%
    22:00 0°C° 0 mm 4 mps 755 mmHg 62%
    23:00 -1°C° 0 mm 4 mps 755 mmHg 63%

    1 April, Wednesday

    Time Temperature Precipitation Wind Pressure Humidity
    00:00 -1°C° 0 mm 4 mps 755 mmHg 64%
    01:00 -2°C° 0 mm 4 mps 755 mmHg 64%
    02:00 -2°C° 0 mm 4 mps 755 mmHg 64%
    03:00 -3°C° 0 mm 4 mps 755 mmHg 65%
    04:00 -3°C° 0 mm 4 mps 755 mmHg 62%
    05:00 -3°C° 0 mm 4 mps 756 mmHg 60%
    06:00 -2°C° 0 mm 3 mps 756 mmHg 57%
    07:00 -3°C° 0 mm 4 mps 756 mmHg 52%
    08:00 -2°C° 0 mm 4 mps 756 mmHg 46%
    09:00 -1°C° 0 mm 4 mps 756 mmHg 40%
    10:00 +1°C° 0 mm 3 mps 756 mmHg 37%
    11:00 +1°C° 0 mm 3 mps 755 mmHg 34%
    12:00 +2°C° 0 mm 3 mps 755 mmHg 31%
    13:00 +4°C° 0 mm 2 mps 755 mmHg 30%
    14:00 +4°C° 0 mm 2 mps 754 mmHg 30%
    15:00 +6°C° 0 mm 1 mps 754 mmHg 29%
    16:00 +6°C° 0 mm 1 mps 753 mmHg 29%
    17:00 +6°C° 0 mm 1 mps 753 mmHg 29%
    18:00 +5°C° 0 mm 1 mps 753 mmHg 30%
    19:00 +5°C° 0 mm 1 mps 753 mmHg 34%
    20:00 +4°C° 0 mm 1 mps 753 mmHg 38%
    21:00 +3°C° 0 mm 1 mps 754 mmHg 42%
    22:00 +2°C° 0 mm 1 mps 754 mmHg 43%
    23:00 +2°C° 0 mm 1 mps 753 mmHg 44%

    2 April, Thursday

    Time Temperature Precipitation Wind Pressure Humidity
    00:00 +1°C° 0 mm 1 mps 753 mmHg 45%
    01:00 +1°C° 0 mm 1 mps 753 mmHg 45%
    02:00 +1°C° 0 mm 1 mps 753 mmHg 46%
    03:00 0°C° 0 mm 0 mps 753 mmHg 46%
    04:00 +1°C° 0 mm 1 mps 753 mmHg 46%
    05:00 +1°C° 0 mm 1 mps 753 mmHg 46%
    06:00 +1°C° 0 mm 1 mps 753 mmHg 47%
    07:00 +2°C° 0 mm 1 mps 753 mmHg 43%
    08:00 +2°C° 0 mm 2 mps 753 mmHg 40%
    09:00 +4°C° 0 mm 2 mps 753 mmHg 36%
    10:00 +5°C° 0 mm 2 mps 753 mmHg 33%
    11:00 +4°C° 0 mm 3 mps 753 mmHg 31%
    12:00 +5°C° 0 mm 3 mps 752 mmHg 28%
    13:00 +7°C° 0 mm 3 mps 752 mmHg 28%
    14:00 +8°C° 0 mm 3 mps 752 mmHg 28%
    15:00 +8°C° 0 mm 3 mps 752 mmHg 28%
    16:00 +8°C° 0 mm 3 mps 752 mmHg 30%
    17:00 +8°C° 0 mm 3 mps 752 mmHg 33%
    18:00 +8°C° 0 mm 2 mps 751 mmHg 35%
    19:00 +7°C° 0 mm 2 mps 752 mmHg 39%
    20:00 +6°C° 0 mm 2 mps 752 mmHg 43%
    21:00 +5°C° 0 mm 1 mps 752 mmHg 47%
    22:00 +4°C° 0 mm 2 mps 752 mmHg 49%
    23:00 +4°C° 0 mm 2 mps 753 mmHg 52%
    Show more